STARLINK-35025, 65430

Orbit data source: Space-Track

STARLINK-35025, 65430 is a payload satellite owned by SpaceX/Seattle (US) in LEO that was launched on Sun, 31 Aug 2025 UTC via an FALCON 9 launch vehicle from the Air Force Eastern Test Range (AFETR). Payload-class satellites include a variety of spacecraft equipped with specific instruments for various scientific and technological missions. These include communications satellites like Starlink; space stations such as the ISS; scientific satellites like the Hubble; Earth observation satellites from companies like Planet Labs, Umbra, and HawkEye 360; GPS; miniature CubeSats for education and research; and military/defense satellites.

Loading next visibility...
Identifier
65430, 2025-192AC
Orbit
LEO
Country
Flag of USUS
Related business
Manufacturer
SpaceX/Seattle
Mission
Operational Commercial Communications
Bus & Motor
STARLINK V2MO, Unknown motor
Mass
575 kg wet, ~530 kg dry
Launch date (UTC)
2025-08-31 (10 months ago)
Launch vehicle
FALCON 9
Launch site
Air Force Eastern Test Range (AFETR)
Object type
Payload
Rocket body
Debris
Shape & HBR
Box + 2 Pan, 17.7 m
Radar Cross Section
36.964 m², Large (>1 m²)

Expand to show TLE details & history
Last TLE update: 1 day ago

TLE from 1 day ago
0 STARLINK-35025
1 65430U 25192AC  26170.56369282  .00016717  00000-0  50481-3 0  9997
2 65430  53.1610 118.2987 0001471  93.1287 266.9884 15.34398417 44999
Epoch: 2026-06-19T13:31Z
TLE epoch observation values (Epoch: 2026-06-19T13:31:43.059Z)
Latitude
-0.00002°
Longitude
7.5784°
Altitude
463.662 km
Speed
7.636 km/s
True Right ascension
07h 53m 11s
True Declination
0° 00' 00"
Sunlit
Object was in daylight at epoch
Visualization orbit readout
Latitude
Unknown
Longitude
Unknown
Altitude
Unknown
Speed
Unknown
Apparent Right ascension
Unknown
Apparent Declination
Unknown
Sunlit
N/A
Visualization observer readout
Local Sidereal Time
07:15:00
Azimuth
Unknown
Elevation
Unknown
Doppler factor
Unknown
Orbital elements
Apogee altitude
463.971 km
Perigee altitude
461.958 km
Semi-major axis
6,841.102 km
Eccentricity
0.00015
Inclination
53.161°
RAAN
118.2987°
Arg. of periapsis
93.1287°
True anomaly
266.97157°
Mean anomaly
266.9884°
Eccentric anomaly
266.97998°
Mean motion
3.83578 °/min
Orbital period
93.85 mins
BSTAR
0.00050481
Loading maneuver chart data...
Computing Atmospheric mass density...
Loading historical data...
Loading historical data...
Loading historical data...
Loading historical data...
Loading historical data...
Loading historical data...
Loading historical data...

Documentation

Showing up to 5 results
|